STARLINK-34241, 64229

Orbit data source: Space-Track

STARLINK-34241, 64229 is a payload satellite owned by SpaceX/Seattle (US) in LEO that was launched on Sat, 31 May 2025 UTC via an FALCON 9 launch vehicle from the Air Force Western Test Range (AFWTR). Payload-class satellites include a variety of spacecraft equipped with specific instruments for various scientific and technological missions. These include communications satellites like Starlink; space stations such as the ISS; scientific satellites like the Hubble; Earth observation satellites from companies like Planet Labs, Umbra, and HawkEye 360; GPS; miniature CubeSats for education and research; and military/defense satellites.

Loading next visibility...
Identifier
64229, 2025-117AC
Orbit
LEO
Last TLE update
4 hours ago
Origin
Manufacturer
SpaceX/Seattle
Mission
Operational Commercial Communications
Bus & Motor
STARLINK V2MO, Unknown motor
Mass
575 kg wet, ~530 kg dry
Launch date (UTC)
2025-05-31 (2 months ago)
Launch vehicle
FALCON 9
Launch site
Air Force Western Test Range (AFWTR)
Object type
Payload
Rocket body
Debris
Shape & HBR
Box + 1 Pan, 14.5 m
Radar Cross Section
41.120 m², Large (>1 m²)

Expand to show TLE details & history

TLE from 4 hours ago
0 STARLINK-34241
1 64229U 25117AC  25211.55000617  .00067009  00000-0  16678-2 0  9996
2 64229  53.1597 355.8521 0001289  73.0489 287.0658 15.39669531  9424
Epoch: 2025-07-30T13:12Z
TLE epoch observation values (Epoch: 2025-07-30T13:12:00.533Z)
Latitude
0.00007°
Longitude
-150.5777°
Altitude
447.731 km
Speed
7.645 km/s
True Right ascension
23h 43m 24s
True Declination
0° 00' 00"
Sunlit
Object was in full shadow at epoch
Visualization orbit readout
Latitude
-53.31214°
Longitude
118.50415°
Altitude
466.394 km
Speed
7.632 km/s
Apparent Right ascension
18h 25m 05s
Apparent Declination
-47° 08' 20"
Sunlit
Object is in full shadow
Visualization observer readout
Local Sidereal Time
07:02:57
Azimuth
139.647° SSE
Elevation
-80.05°
Doppler factor
1
Orbital elements
Apogee altitude
448.223 km
Perigee altitude
446.463 km
Semi-major axis
6,825.48 km
Eccentricity
0.00013
Inclination
53.1597°
RAAN
355.8521°
Arg. of periapsis
73.0489°
True anomaly
287.05168°
Mean anomaly
287.0658°
Eccentric anomaly
287.05874°
Mean motion
3.84896 °/min
Orbital period
93.53 mins
BSTAR
0.0016678
Loading maneuver chart data...
Loading SW <> Apogee altitude chart data...
Loading historical data...
Loading historical data...
Loading historical data...
Loading historical data...
Loading historical data...
Loading historical data...
Loading historical data...
|